Weather History for KBUF - September, 2013

Change the Weather History Date:

Sunday, September 22, 2013

  Actual Average Record
Temperature  
Mean Temperature 53 °F 60 °F  
Max Temperature 57 °F 69 °F 89 °F (1965)
Min Temperature 48 °F 51 °F 37 °F (1963)
Degree Days  
Heating Degree Days 12 6  
Month to date heating degree days 104 75  
Since 1 July heating degree days 120 102  
Cooling Degree Days 0 1  
Month to date cooling degree days 49 47  
Year to date cooling degree days 601 534  
Growing Degree Days 2 (Base 50)    
Moisture  
Dew Point 43 °F    
Average Humidity 76    
Maximum Humidity 93    
Minimum Humidity 59    
Precipitation  
Precipitation 0.00 in 0.14 in 1.55 in (1885)
Month to date precipitation 3.53 2.77  
Year to date precipitation 31.16 27.93  
Snow  
Snow 0.00 in 0.00 in 0.00 in ()
Month to date snowfall 0.0 0.0  
Since 1 July snowfall 0.0 0.0  
Since 1 September snowfall 0.0 0.0  
Snow Depth 0.00 in    
Sea Level Pressure  
Sea Level Pressure 29.91 in    
Wind  
Wind Speed 8 mph (NW)    
Max Wind Speed 17 mph    
Max Gust Speed 22 mph    
Visibility 10 miles    
Events      
T = Trace of Precipitation, MM = Missing Value Source: NWS Daily Summary

Daily Weather History Graph

Daily Weather History Graph

Search for Another Location

Airport or City:

Trip Planner

Search our weather history database for the weather conditions in past years. The results will help you decide how hot, cold, wet, or windy it might be!

Date:

Astronomy

Sep. 22, 2013 Rise Set
Actual Time 7:02 AM EDT 7:11 PM EDT
Civil Twilight 6:34 AM EDT 7:40 PM EDT
Nautical Twilight 6:00 AM EDT 8:13 PM EDT
Astronomical Twilight 5:27 AM EDT 8:47 PM EDT
Moon 8:54 PM EDT (9/22) 10:26 AM EDT (9/22)
Length of Visible Light 13h 05m
Length of Day
12h 09m
Waning Gibbous, 89% of the Moon is Illuminated
Sep 22
Waning Gibbous
Sep 26
Last Quarter
Oct 4
New
Oct 11
First Quarter
Oct 18
Full

Hourly Weather History & Observations

Time (EDT) Temp. Dew Point Humidity Pressure Visibility Wind Dir Wind Speed Gust Speed Precip Events Conditions
12:54 AM 54.0 °F 48.0 °F 80% 29.77 in 10.0 mi WSW 6.9 mph - N/A   Overcast
1:54 AM 53.1 °F 46.9 °F 80% 29.78 in 10.0 mi West 10.4 mph - N/A   Mostly Cloudy
2:54 AM 53.1 °F 46.0 °F 77% 29.78 in 10.0 mi WNW 8.1 mph - N/A   Mostly Cloudy
3:54 AM 51.1 °F 45.0 °F 80% 29.79 in 10.0 mi West 8.1 mph - N/A   Scattered Clouds
4:54 AM 50.0 °F 45.0 °F 83% 29.81 in 10.0 mi West 6.9 mph - N/A   Scattered Clouds
5:54 AM 48.9 °F 45.0 °F 86% 29.82 in 10.0 mi West 6.9 mph - N/A   Scattered Clouds
6:39 AM 48.2 °F 44.6 °F 87% 29.83 in 10.0 mi West 8.1 mph - N/A   Mostly Cloudy
6:52 AM 50.0 °F 44.6 °F 82% 29.83 in 10.0 mi West 8.1 mph - N/A   Mostly Cloudy
6:54 AM 50.0 °F 45.0 °F 83% 29.84 in 10.0 mi WNW 6.9 mph - N/A   Mostly Cloudy
7:54 AM 48.9 °F 46.0 °F 90% 29.86 in 10.0 mi WNW 5.8 mph - N/A   Mostly Cloudy
8:54 AM 52.0 °F 43.0 °F 71% 29.88 in 10.0 mi NW 12.7 mph - N/A   Scattered Clouds
9:54 AM 54.0 °F 44.1 °F 69% 29.91 in 10.0 mi NW 8.1 mph - N/A   Mostly Cloudy
10:54 AM 53.1 °F 43.0 °F 69% 29.92 in 10.0 mi NNW 9.2 mph - N/A   Mostly Cloudy
11:54 AM 53.1 °F 42.1 °F 66% 29.94 in 10.0 mi NNW 6.9 mph - N/A   Mostly Cloudy
12:54 PM 53.1 °F 42.1 °F 66% 29.95 in 10.0 mi NNW 10.4 mph - N/A   Mostly Cloudy
1:54 PM 55.0 °F 43.0 °F 64% 29.95 in 10.0 mi NNW 13.8 mph 21.9 mph N/A   Scattered Clouds
2:54 PM 55.0 °F 42.1 °F 62% 29.95 in 10.0 mi NNW 11.5 mph - N/A   Scattered Clouds
3:54 PM 55.0 °F 42.1 °F 62% 29.95 in 10.0 mi North 11.5 mph - N/A   Scattered Clouds
4:54 PM 53.1 °F 41.0 °F 64% 29.96 in 10.0 mi NW 12.7 mph - N/A   Mostly Cloudy
5:54 PM 53.1 °F 39.9 °F 61% 29.98 in 10.0 mi NW 12.7 mph - N/A   Mostly Cloudy
6:54 PM 52.0 °F 39.0 °F 61% 30.00 in 10.0 mi NNW 9.2 mph - N/A   Mostly Cloudy
7:54 PM 50.0 °F 39.0 °F 66% 30.01 in 10.0 mi NW 3.5 mph - N/A   Mostly Cloudy
8:54 PM 51.1 °F 41.0 °F 68% 30.03 in 10.0 mi NNW 5.8 mph - N/A   Mostly Cloudy
9:54 PM 51.1 °F 42.1 °F 71% 30.04 in 10.0 mi NNW 4.6 mph - N/A   Mostly Cloudy
10:54 PM 51.1 °F 42.1 °F 71% 30.05 in 10.0 mi NW 5.8 mph - N/A   Mostly Cloudy
11:54 PM 51.1 °F 42.1 °F 71% 30.05 in 10.0 mi NNW 4.6 mph - N/A   Mostly Cloudy